Location: Namasale
(1.5000°N, 32.6167°E)
Time: 14:48:50
(UTC+00:00)

deb Explorer IX - Visible Passes

Search period start: 19 April 2021 00:00
Search period end: 29 April 2021 00:00
Orbit: 540 x 1099 km, 38.8° (Epoch: 18 April)

Date Brightness Start Highest point End Pass type
(mag) Time Alt. Az. Time Alt. Az. Time Alt. Az.
19 Apr ? 02:48:44 13° NW 02:49:38 14° NW 02:51:51 10° N visible
20 Apr ? 02:26:38 14° NNW 02:26:38 14° NNW 02:28:12 10° N visible
21 Apr ? 02:04:27 10° N 02:04:27 10° N 02:04:35 10° N visible
